Starlink 30354

operational
NORAD ID: 57772 Int'l Des: 2023-134 Owner: SPXS Country: US Constellation: starlink
LEOCIRCULAR

Starlink 30354について

説明を読み込み中...

リアルタイム位置

3D地球を読み込み中...

次回通過

高度履歴

Altitude vs Time

uPlot chart will show altitude changes over time

軌道要素

1 57772U 23134B 25308.63668518 -.00000100 00000-0 76676-5 0 9991
2 57772 43.0038 156.6987 0001343 262.4666 97.6024 15.02534002120668
Epoch: Nov 4, 2025 • Age: 17 hours

現在のステータス

高度 560.7 km
速度 7.59 km/s
衛星直下点 32.17°N, 128.93°E
打ち上げ日 Sep 4, 2023
運用期間 2.1 years
タイプ internet

技術仕様

分類 Payload
質量 730.00 kg
乾燥質量 700.00 kg
総質量 730.00 kg
長さ 0.30 m
直径 4.10 m
スパン 29.00 m
形状 Box + pan
製造者 SPXS
バスタイプ Starlink V2M
フェーズステータス In Orbit
所有者/国 SPXS/US

大規模コンステレーション

Loading constellations...